When you browse on this site, cookies collect data to enhance your experience and personalize the content and advertising you see.
Visit our Privacy Policy to learn more. By continuing to use the site, you agree to this use of cookies and data.
  • In United Kingdom
  • List of Countries
  • For 7 days
  • Water Temperature
  • Weather Map
  • Weather Widgets
  • user-avatar
    Login

    Hourly Weather Achaea

    Today, 26 August, Monday

    Time Temperature Precipitation Wind Pressure Humidity
    00:00 +21°C° 0 mm 2 mps 686 mmHg 44%
    01:00 +21°C° 0 mm 2 mps 686 mmHg 44%
    02:00 +21°C° 0 mm 2 mps 686 mmHg 46%
    03:00 +20°C° 0 mm 2 mps 686 mmHg 48%
    04:00 +20°C° 0 mm 2 mps 686 mmHg 49%
    05:00 +23°C° 0 mm 2 mps 686 mmHg 45%
    06:00 +25°C° 0 mm 2 mps 687 mmHg 41%
    07:00 +27°C° 0 mm 2 mps 687 mmHg 36%
    08:00 +29°C° 0 mm 2 mps 688 mmHg 31%
    09:00 +31°C° 0 mm 2 mps 688 mmHg 26%
    10:00 +34°C° 0 mm 3 mps 689 mmHg 21%
    11:00 +34°C° 0 mm 3 mps 688 mmHg 20%
    12:00 +35°C° 0 mm 3 mps 688 mmHg 20%
    13:00 +35°C° 0 mm 4 mps 688 mmHg 19%
    14:00 +34°C° 0 mm 4 mps 688 mmHg 22%
    15:00 +33°C° 0 mm 4 mps 688 mmHg 25%
    16:00 +32°C° 0 mm 4 mps 687 mmHg 28%
    17:00 +28°C° 0 mm 3 mps 687 mmHg 37%
    18:00 +26°C° 0 mm 3 mps 686 mmHg 45%
    19:00 +23°C° 0 mm 2 mps 686 mmHg 54%
    20:00 +23°C° 0 mm 2 mps 686 mmHg 53%
    21:00 +21°C° 0 mm 2 mps 686 mmHg 53%
    22:00 +21°C° 0 mm 2 mps 687 mmHg 52%
    23:00 +21°C° 0 mm 2 mps 686 mmHg 50%

    Tomorrow, 27 August, Tuesday

    Time Temperature Precipitation Wind Pressure Humidity
    00:00 +21°C° 0 mm 2 mps 686 mmHg 48%
    01:00 +21°C° 0 mm 3 mps 686 mmHg 46%
    02:00 +20°C° 0 mm 3 mps 686 mmHg 46%
    03:00 +20°C° 0 mm 3 mps 686 mmHg 47%
    04:00 +20°C° 0 mm 3 mps 686 mmHg 47%
    05:00 +22°C° 0 mm 3 mps 687 mmHg 43%
    06:00 +24°C° 0 mm 3 mps 687 mmHg 39%
    07:00 +26°C° 0 mm 3 mps 687 mmHg 35%
    08:00 +28°C° 0 mm 3 mps 688 mmHg 30%
    09:00 +30°C° 0 mm 3 mps 688 mmHg 25%
    10:00 +33°C° 0 mm 3 mps 689 mmHg 20%
    11:00 +33°C° 0 mm 4 mps 689 mmHg 20%
    12:00 +33°C° 0 mm 4 mps 689 mmHg 20%
    13:00 +34°C° 0 mm 4 mps 689 mmHg 19%
    14:00 +33°C° 0 mm 4 mps 688 mmHg 21%
    15:00 +32°C° 0 mm 4 mps 688 mmHg 23%
    16:00 +30°C° 0 mm 4 mps 688 mmHg 25%
    17:00 +27°C° 0 mm 3 mps 688 mmHg 34%
    18:00 +25°C° 0 mm 3 mps 687 mmHg 42%
    19:00 +21°C° 0 mm 2 mps 687 mmHg 50%
    20:00 +21°C° 0 mm 2 mps 687 mmHg 49%
    21:00 +20°C° 0 mm 2 mps 687 mmHg 48%
    22:00 +20°C° 0 mm 2 mps 687 mmHg 47%
    23:00 +20°C° 0 mm 2 mps 687 mmHg 47%

    Day after tomorrow, 28 August, Wednesday

    Time Temperature Precipitation Wind Pressure Humidity
    00:00 +19°C° 0 mm 2 mps 687 mmHg 47%
    01:00 +19°C° 0 mm 2 mps 687 mmHg 47%
    02:00 +19°C° 0 mm 2 mps 687 mmHg 50%
    03:00 +19°C° 0 mm 2 mps 686 mmHg 54%
    04:00 +18°C° 0 mm 2 mps 686 mmHg 58%
    05:00 +20°C° 0 mm 2 mps 687 mmHg 53%
    06:00 +23°C° 0 mm 2 mps 687 mmHg 48%
    07:00 +25°C° 0 mm 2 mps 687 mmHg 43%
    08:00 +26°C° 0 mm 3 mps 688 mmHg 37%
    09:00 +28°C° 0 mm 3 mps 688 mmHg 31%
    10:00 +30°C° 0 mm 3 mps 689 mmHg 25%
    11:00 +30°C° 0 mm 3 mps 688 mmHg 23%
    12:00 +31°C° 0 mm 3 mps 688 mmHg 21%
    13:00 +32°C° 0 mm 4 mps 688 mmHg 19%
    14:00 +32°C° 0 mm 4 mps 688 mmHg 21%
    15:00 +30°C° 0 mm 4 mps 688 mmHg 22%
    16:00 +29°C° 0 mm 4 mps 688 mmHg 24%
    17:00 +27°C° 0 mm 3 mps 687 mmHg 29%
    18:00 +24°C° 0 mm 3 mps 687 mmHg 34%
    19:00 +20°C° 0 mm 2 mps 686 mmHg 40%
    20:00 +20°C° 0 mm 2 mps 686 mmHg 39%
    21:00 +19°C° 0 mm 2 mps 686 mmHg 39%
    22:00 +18°C° 0 mm 2 mps 687 mmHg 38%
    23:00 +18°C° 0 mm 2 mps 686 mmHg 38%

    29 August, Thursday

    Time Temperature Precipitation Wind Pressure Humidity
    00:00 +18°C° 0 mm 2 mps 686 mmHg 38%
    01:00 +19°C° 0 mm 1 mps 686 mmHg 38%
    02:00 +19°C° 0 mm 1 mps 686 mmHg 39%
    03:00 +18°C° 0 mm 2 mps 686 mmHg 40%
    04:00 +18°C° 0 mm 2 mps 686 mmHg 41%
    05:00 +20°C° 0 mm 2 mps 686 mmHg 38%
    06:00 +23°C° 0 mm 2 mps 686 mmHg 35%
    07:00 +25°C° 0 mm 2 mps 687 mmHg 31%
    08:00 +27°C° 0 mm 2 mps 687 mmHg 28%
    09:00 +28°C° 0 mm 2 mps 688 mmHg 25%
    10:00 +30°C° 0 mm 3 mps 688 mmHg 21%
    11:00 +31°C° 0 mm 3 mps 688 mmHg 20%
    12:00 +31°C° 0 mm 3 mps 688 mmHg 19%
    13:00 +33°C° 0 mm 3 mps 687 mmHg 19%
    14:00 +31°C° 0 mm 3 mps 687 mmHg 21%
    15:00 +30°C° 0 mm 3 mps 687 mmHg 23%
    16:00 +29°C° 0 mm 3 mps 687 mmHg 26%
    17:00 +26°C° 0 mm 2 mps 686 mmHg 33%
    18:00 +24°C° 0 mm 1 mps 686 mmHg 41%
    19:00 +21°C° 0 mm 1 mps 686 mmHg 48%
    20:00 +21°C° 0 mm 1 mps 686 mmHg 47%
    21:00 +20°C° 0 mm 1 mps 686 mmHg 46%
    22:00 +20°C° 0 mm 1 mps 686 mmHg 45%
    23:00 +20°C° 0 mm 1 mps 686 mmHg 44%

    30 August, Friday

    Time Temperature Precipitation Wind Pressure Humidity
    00:00 +20°C° 0 mm 1 mps 686 mmHg 43%
    01:00 +19°C° 0 mm 1 mps 685 mmHg 43%
    02:00 +19°C° 0 mm 1 mps 685 mmHg 42%
    03:00 +18°C° 0 mm 2 mps 685 mmHg 42%
    04:00 +18°C° 0 mm 2 mps 685 mmHg 42%
    05:00 +20°C° 0 mm 2 mps 686 mmHg 39%
    06:00 +23°C° 0 mm 2 mps 686 mmHg 36%
    07:00 +25°C° 0 mm 2 mps 687 mmHg 32%
    08:00 +26°C° 0 mm 2 mps 687 mmHg 29%
    09:00 +28°C° 0 mm 3 mps 688 mmHg 26%
    10:00 +30°C° 0 mm 3 mps 688 mmHg 23%
    11:00 +30°C° 0 mm 3 mps 688 mmHg 22%
    12:00 +31°C° 0 mm 3 mps 688 mmHg 22%
    13:00 +32°C° 0 mm 4 mps 688 mmHg 21%
    14:00 +30°C° 0 mm 4 mps 687 mmHg 24%
    15:00 +29°C° 0 mm 3 mps 687 mmHg 27%
    16:00 +28°C° 0 mm 3 mps 687 mmHg 30%
    17:00 +26°C° 0 mm 3 mps 686 mmHg 40%
    18:00 +23°C° 0 mm 2 mps 686 mmHg 50%
    19:00 +20°C° 0 mm 1 mps 686 mmHg 60%
    20:00 +20°C° 0 mm 1 mps 686 mmHg 59%
    21:00 +20°C° 0 mm 1 mps 686 mmHg 58%
    22:00 +19°C° 0 mm 1 mps 686 mmHg 57%
    23:00 +19°C° 0 mm 1 mps 686 mmHg 55%

    31 August, Saturday

    Time Temperature Precipitation Wind Pressure Humidity
    00:00 +19°C° 0 mm 1 mps 686 mmHg 54%
    01:00 +19°C° 0 mm 1 mps 685 mmHg 52%
    02:00 +19°C° 0 mm 1 mps 685 mmHg 52%
    03:00 +17°C° 0 mm 2 mps 685 mmHg 52%
    04:00 +17°C° 0 mm 2 mps 685 mmHg 52%
    05:00 +19°C° 0 mm 2 mps 686 mmHg 47%
    06:00 +21°C° 0 mm 2 mps 686 mmHg 43%
    07:00 +24°C° 0 mm 2 mps 686 mmHg 38%
    08:00 +26°C° 0 mm 2 mps 687 mmHg 34%
    09:00 +27°C° 0 mm 3 mps 687 mmHg 30%
    10:00 +29°C° 0 mm 3 mps 688 mmHg 25%
    11:00 +30°C° 0 mm 3 mps 688 mmHg 25%
    12:00 +30°C° 0 mm 4 mps 688 mmHg 24%
    13:00 +30°C° 0 mm 4 mps 687 mmHg 23%
    14:00 +29°C° 0 mm 4 mps 687 mmHg 26%
    15:00 +29°C° 0 mm 4 mps 687 mmHg 29%
    16:00 +28°C° 0 mm 3 mps 687 mmHg 31%
    17:00 +25°C° 0 mm 3 mps 686 mmHg 41%
    18:00 +21°C° 0 mm 2 mps 686 mmHg 50%
    19:00 +20°C° 0 mm 1 mps 686 mmHg 59%
    20:00 +19°C° 0 mm 1 mps 686 mmHg 57%
    21:00 +19°C° 0 mm 1 mps 686 mmHg 56%
    22:00 +18°C° 0 mm 2 mps 686 mmHg 54%
    23:00 +17°C° 0 mm 2 mps 686 mmHg 52%
    Show more